EN

Hourly Weather Paraiso

Today, 19 April, Monday

Time Temperature Precipitation Wind Pressure Humidity
00:00 +27°C° 0.2 mm 5 mps 759 mmHg 83%
01:00 +26°C° 0.4 mm 5 mps 759 mmHg 86%
02:00 +26°C° 0.4 mm 4 mps 759 mmHg 88%
03:00 +26°C° 0.4 mm 4 mps 758 mmHg 90%
04:00 +25°C° 0.2 mm 4 mps 758 mmHg 91%
05:00 +25°C° 0.2 mm 4 mps 759 mmHg 92%
06:00 +25°C° 0.2 mm 5 mps 759 mmHg 94%
07:00 +27°C° 0 mm 5 mps 759 mmHg 85%
08:00 +28°C° 0 mm 6 mps 759 mmHg 75%
09:00 +30°C° 0 mm 7 mps 760 mmHg 66%
10:00 +30°C° 0.1 mm 7 mps 759 mmHg 65%
11:00 +30°C° 0.1 mm 7 mps 759 mmHg 65%
12:00 +32°C° 0.1 mm 7 mps 759 mmHg 64%
13:00 +32°C° 0.1 mm 7 mps 758 mmHg 62%
14:00 +32°C° 0.1 mm 7 mps 758 mmHg 61%
15:00 +32°C° 0.1 mm 7 mps 757 mmHg 60%
16:00 +30°C° 0 mm 6 mps 757 mmHg 63%
17:00 +30°C° 0 mm 5 mps 757 mmHg 66%
18:00 +29°C° 0 mm 5 mps 757 mmHg 69%
19:00 +28°C° 0 mm 4 mps 757 mmHg 74%
20:00 +27°C° 0 mm 3 mps 757 mmHg 78%
21:00 +26°C° 0 mm 2 mps 758 mmHg 83%
22:00 +26°C° 0 mm 2 mps 758 mmHg 84%
23:00 +26°C° 0 mm 1 mps 758 mmHg 85%

Tomorrow, 20 April, Tuesday

Time Temperature Precipitation Wind Pressure Humidity
00:00 +25°C° 0 mm 1 mps 758 mmHg 86%
01:00 +25°C° 0 mm 2 mps 758 mmHg 87%
02:00 +25°C° 0 mm 2 mps 757 mmHg 89%
03:00 +24°C° 0 mm 2 mps 757 mmHg 90%
04:00 +24°C° 0 mm 2 mps 757 mmHg 91%
05:00 +24°C° 0 mm 2 mps 758 mmHg 93%
06:00 +24°C° 0 mm 2 mps 758 mmHg 94%
07:00 +26°C° 0 mm 2 mps 759 mmHg 82%
08:00 +29°C° 0 mm 2 mps 759 mmHg 71%
09:00 +31°C° 0 mm 2 mps 759 mmHg 60%
10:00 +31°C° 0 mm 3 mps 759 mmHg 60%
11:00 +32°C° 0 mm 4 mps 759 mmHg 60%
12:00 +32°C° 0 mm 5 mps 759 mmHg 61%
13:00 +33°C° 0 mm 5 mps 758 mmHg 59%
14:00 +33°C° 0 mm 5 mps 758 mmHg 57%
15:00 +34°C° 0 mm 5 mps 757 mmHg 55%
16:00 +32°C° 0 mm 5 mps 757 mmHg 60%
17:00 +30°C° 0 mm 5 mps 757 mmHg 65%
18:00 +29°C° 0 mm 4 mps 757 mmHg 71%
19:00 +28°C° 0 mm 4 mps 758 mmHg 76%
20:00 +27°C° 0 mm 4 mps 758 mmHg 81%
21:00 +26°C° 0 mm 4 mps 759 mmHg 87%
22:00 +26°C° 0 mm 3 mps 759 mmHg 88%
23:00 +26°C° 0 mm 2 mps 760 mmHg 89%

Day after tomorrow, 21 April, Wednesday

Time Temperature Precipitation Wind Pressure Humidity
00:00 +26°C° 0 mm 2 mps 760 mmHg 89%
01:00 +26°C° 0.3 mm 1 mps 760 mmHg 90%
02:00 +26°C° 0.3 mm 1 mps 759 mmHg 90%
03:00 +26°C° 0.3 mm 1 mps 759 mmHg 90%
04:00 +26°C° 0.2 mm 1 mps 759 mmHg 91%
05:00 +25°C° 0.2 mm 1 mps 759 mmHg 92%
06:00 +25°C° 0.2 mm 2 mps 760 mmHg 93%
07:00 +27°C° 0 mm 2 mps 760 mmHg 83%
08:00 +29°C° 0 mm 2 mps 760 mmHg 73%
09:00 +31°C° 0 mm 2 mps 761 mmHg 63%
10:00 +33°C° 0 mm 3 mps 760 mmHg 57%
11:00 +35°C° 0 mm 3 mps 760 mmHg 51%
12:00 +36°C° 0 mm 4 mps 760 mmHg 45%
13:00 +36°C° 0 mm 5 mps 759 mmHg 46%
14:00 +35°C° 0 mm 5 mps 759 mmHg 48%
15:00 +35°C° 0 mm 5 mps 758 mmHg 50%
16:00 +34°C° 0 mm 5 mps 758 mmHg 55%
17:00 +32°C° 0 mm 5 mps 758 mmHg 61%
18:00 +30°C° 0 mm 5 mps 758 mmHg 67%
19:00 +29°C° 0.2 mm 5 mps 759 mmHg 74%
20:00 +27°C° 0.2 mm 5 mps 759 mmHg 81%
21:00 +26°C° 0.2 mm 5 mps 760 mmHg 88%
22:00 +26°C° 0.4 mm 4 mps 760 mmHg 90%
23:00 +26°C° 0.4 mm 4 mps 760 mmHg 92%

22 April, Thursday

Time Temperature Precipitation Wind Pressure Humidity
00:00 +26°C° 0.4 mm 4 mps 760 mmHg 93%
01:00 +26°C° 0.3 mm 3 mps 759 mmHg 93%
02:00 +26°C° 0.3 mm 3 mps 759 mmHg 93%
03:00 +25°C° 0.3 mm 2 mps 758 mmHg 93%
04:00 +25°C° 0 mm 2 mps 758 mmHg 93%
05:00 +25°C° 0 mm 1 mps 759 mmHg 92%
06:00 +25°C° 0 mm 1 mps 759 mmHg 92%
07:00 +27°C° 0 mm 1 mps 759 mmHg 83%
08:00 +29°C° 0 mm 1 mps 760 mmHg 75%
09:00 +31°C° 0 mm 1 mps 760 mmHg 66%
10:00 +32°C° 0 mm 2 mps 760 mmHg 59%
11:00 +35°C° 0 mm 3 mps 759 mmHg 53%
12:00 +36°C° 0 mm 4 mps 759 mmHg 46%
13:00 +36°C° 0 mm 5 mps 758 mmHg 48%
14:00 +36°C° 0 mm 6 mps 757 mmHg 50%
15:00 +35°C° 0 mm 7 mps 757 mmHg 52%
16:00 +34°C° 0 mm 7 mps 757 mmHg 58%
17:00 +33°C° 0 mm 6 mps 757 mmHg 64%
18:00 +30°C° 0 mm 6 mps 757 mmHg 70%
19:00 +30°C° 0.1 mm 6 mps 757 mmHg 74%
20:00 +29°C° 0.1 mm 6 mps 758 mmHg 77%
21:00 +29°C° 0.1 mm 6 mps 758 mmHg 81%
22:00 +28°C° 0.2 mm 6 mps 758 mmHg 80%
23:00 +28°C° 0.2 mm 6 mps 758 mmHg 80%

23 April, Friday

Time Temperature Precipitation Wind Pressure Humidity
00:00 +28°C° 0.2 mm 6 mps 758 mmHg 80%
01:00 +27°C° 0 mm 6 mps 758 mmHg 80%
02:00 +27°C° 0 mm 5 mps 757 mmHg 80%
03:00 +27°C° 0 mm 5 mps 757 mmHg 79%
04:00 +26°C° 0 mm 5 mps 757 mmHg 77%
05:00 +26°C° 0 mm 5 mps 758 mmHg 76%
06:00 +25°C° 0 mm 5 mps 758 mmHg 74%
07:00 +28°C° 0 mm 5 mps 758 mmHg 65%
08:00 +30°C° 0 mm 6 mps 759 mmHg 57%
09:00 +33°C° 0 mm 6 mps 759 mmHg 49%
10:00 +35°C° 0 mm 5 mps 758 mmHg 42%
11:00 +37°C° 0 mm 5 mps 758 mmHg 36%
12:00 +40°C° 0 mm 5 mps 757 mmHg 29%
13:00 +40°C° 0 mm 5 mps 756 mmHg 26%
14:00 +41°C° 0 mm 6 mps 756 mmHg 23%
15:00 +43°C° 0 mm 7 mps 755 mmHg 20%
16:00 +40°C° 0 mm 7 mps 755 mmHg 24%
17:00 +39°C° 0 mm 7 mps 755 mmHg 28%
18:00 +38°C° 0 mm 7 mps 755 mmHg 32%
19:00 +35°C° 0 mm 7 mps 755 mmHg 38%
20:00 +33°C° 0 mm 7 mps 756 mmHg 44%
21:00 +32°C° 0 mm 7 mps 756 mmHg 50%
22:00 +30°C° 0 mm 7 mps 756 mmHg 53%
23:00 +30°C° 0 mm 7 mps 756 mmHg 55%

24 April, Saturday

Time Temperature Precipitation Wind Pressure Humidity
00:00 +29°C° 0 mm 7 mps 756 mmHg 58%
01:00 +29°C° 0 mm 7 mps 756 mmHg 57%
02:00 +29°C° 0 mm 7 mps 756 mmHg 56%
03:00 +28°C° 0 mm 8 mps 755 mmHg 55%
04:00 +28°C° 0 mm 7 mps 756 mmHg 58%
05:00 +27°C° 0 mm 7 mps 756 mmHg 62%
06:00 +26°C° 0 mm 7 mps 756 mmHg 65%
07:00 +28°C° 0 mm 7 mps 756 mmHg 59%
08:00 +30°C° 0 mm 6 mps 757 mmHg 53%
09:00 +33°C° 0 mm 6 mps 757 mmHg 47%
10:00 +36°C° 0 mm 5 mps 756 mmHg 41%
11:00 +38°C° 0 mm 4 mps 756 mmHg 36%
12:00 +40°C° 0 mm 3 mps 755 mmHg 31%
13:00 +42°C° 0 mm 4 mps 754 mmHg 30%
14:00 +42°C° 0 mm 5 mps 753 mmHg 28%
15:00 +43°C° 0 mm 5 mps 753 mmHg 27%
16:00 +41°C° 0 mm 5 mps 753 mmHg 33%
17:00 +37°C° 0 mm 5 mps 753 mmHg 39%
18:00 +35°C° 0 mm 5 mps 752 mmHg 44%
19:00 +34°C° 0 mm 5 mps 753 mmHg 50%
20:00 +33°C° 0 mm 4 mps 754 mmHg 56%
21:00 +31°C° 0 mm 3 mps 755 mmHg 62%
22:00 +31°C° 0 mm 3 mps 755 mmHg 58%
23:00 +32°C° 0 mm 4 mps 755 mmHg 54%
Show more

We Need Your Consent

Meteoprog and our Service Providers may store and access personal data such as cookies, device identifiers or other similar technologies on your device and process such data to personalise content and ads, as well as provide social media features and to analyse the traffic.

  • Store and/or access information on your device

    Cookies, device identifiers or other information can be stored or accessed on your device for the purposes indicated above.

  • Personalised ads and content, ad and content measurement, audience insights, and products development

    Ads and content can be personalised based on a profile. More data can be added to better personalise ads and content. Ad and content performance can be measured. Insights about the audience who saw the ads and content can be derived. Such data can be used to develop or improve user’s experience, systems and software.

By clicking ‘I Agree’ you will allow the use of indicated cookies, device identifiers, web beacons or other similar technologies. Your settings can be changed in the browser on your device.

For certain purposes, legitimate interests may be relied on, rather than consent. You can read more about this in our Privacy and Cookie Policy.